Regional Weather Roundup
Issued by NWS

Home | Current Version | Previous Version | Text Only | Print | Product List | Glossary Off
Versions: 1 2 3 4 5 6 7 8 9 10 11 12 13 14 15 16 17 18 19 20 21 22 23 24 25 26 27 28 29 30 31 32 33 34 35 36 37 38 39 40 41 42 43 44 45 46 47 48 49 50

000
ASUS43 KTOP 281208
RWRKS

WEATHER ROUNDUP FOR KANSAS
NATIONAL WEATHER SERVICE GOODLAND KS
700 AM CDT TUE MAR 28 2017

NOTE:  "FAIR" INDICATES FEW OR NO CLOUDS BELOW 12,000 FEET WITH NO
SIGNIFICANT WEATHER AND/OR OBSTRUCTIONS TO VISIBILITY.

KSZ001>006-013>018-027>032-041>047-281300-
NORTHWEST KANSAS

CITY           SKY/WX    TMP DP  RH WIND       PRES   REMARKS
GOODLAND       CLOUDY    44  44 100 SE15G23   29.88S FOG
6HR MIN TEMP:  44; 6HR MAX TEMP:  47;

HAYS             N/A     43  43 100 E7        29.98F FOG
HILL CITY      CLOUDY    45  45 100 SE9       29.97F FOG
6HR MIN TEMP:  42; 6HR MAX TEMP:  46;

RUSSELL        CLOUDY    42  41  96 S5        29.98S FOG
6HR MIN TEMP:  35; 6HR MAX TEMP:  43;

$$

KSZ061>065-074>080-084>089-281300-
SOUTHWEST KANSAS

CITY           SKY/WX    TMP DP  RH WIND       PRES   REMARKS
DODGE CITY     FOG       45  44  97 SE16      29.93F VSB 3/4
6HR MIN TEMP:  44; 6HR MAX TEMP:  48; 6HR PCP: TRACE;

ELKHART          N/A     46  36  68 SE14        N/A
GARDEN CITY    CLOUDY    46  44  93 SE13      29.92S FOG
6HR MIN TEMP:  46; 6HR MAX TEMP:  49; 6HR PCP: TRACE;

GREAT BEND     CLOUDY    46  44  93 SE7       29.99S FOG
LIBERAL        CLOUDY    46  39  76 E16       29.92R
PRATT          CLOUDY    44  42  94 SE7       29.98S FOG
6HR MIN TEMP:  40; 6HR MAX TEMP:  44;

$$

KSZ066>073-081>083-090>101-281300-
SOUTHEAST KANSAS

CITY           SKY/WX    TMP DP  RH WIND       PRES   REMARKS
CHANUTE        CLOUDY    51  46  83 NE5       30.01S
6HR MIN TEMP:  50; 6HR MAX TEMP:  52;

COFFEYVILLE    CLOUDY    52  47  83 E10       30.00S
6HR MIN TEMP:  52; 6HR MAX TEMP:  53;

HUTCHINSON     CLOUDY    49  46  90 CALM      30.01R
6HR MIN TEMP:  44; 6HR MAX TEMP:  49;

MEDICINE LODGE   N/A     45  44  97 E3        29.98S
NEWTON         CLOUDY    48  46  93 SE3       30.02R
PARSONS        CLOUDY    52  47  83 NE5       30.01S
6HR MIN TEMP:  52; 6HR MAX TEMP:  53;

WICHITA INTL   CLOUDY    50  45  83 E8        30.00R
6HR MIN TEMP:  50; 6HR MAX TEMP:  52;

WICHITA JABRA  CLOUDY    49  45  86 E5        30.00R
6HR MIN TEMP:  49; 6HR MAX TEMP:  51;

WICHITA MCCONL CLOUDY    50  44  81 E6        30.00R
WINFIELD       CLOUDY    50  46  86 E5        30.01R
6HR MIN TEMP:  50; 6HR MAX TEMP:  53;

$$

KSZ007>012-019>026-033>040-048>060-102>105-281300-
NORTHEAST KANSAS

CITY           SKY/WX    TMP DP  RH WIND       PRES   REMARKS
CONCORDIA      CLOUDY    40  40 100 E3        30.02R FOG
6HR MIN TEMP:  39; 6HR MAX TEMP:  47;

EMPORIA        CLOUDY    49  47  93 E8        30.01S
6HR MIN TEMP:  49; 6HR MAX TEMP:  51;

LAWRENCE       CLOUDY    49  45  86 NE6       30.04R
6HR MIN TEMP:  49; 6HR MAX TEMP:  51;

MANHATTAN      PTCLDY    46  43  89 NE5       30.02R
6HR MIN TEMP:  45; 6HR MAX TEMP:  52;

MARYSVILLE     MOCLDY    36  36 100 CALM      30.04R
OLATHE IND     CLOUDY    48  46  93 NE7       30.03S
6HR MIN TEMP:  48; 6HR MAX TEMP:  50;

OLATHE EXE     CLOUDY    47  47 100 NE6       30.03R
6HR MIN TEMP:  47; 6HR MAX TEMP:  50;

SALINA         CLOUDY    49  46  90 S5        30.02R
6HR MIN TEMP:  49; 6HR MAX TEMP:  53;

TOPEKA BILLARD PTCLDY    47  44  90 CALM      30.03R
6HR MIN TEMP:  47; 6HR MAX TEMP:  51;

TOPEKA FORBES  CLOUDY    50  44  80 E6        30.02R
6HR MIN TEMP:  50; 6HR MAX TEMP:  52;

$$



USA.gov is the U.S. government's official web portal to all federal, state and local government web resources and services.